Volver al catálogo

COSMOS 2251 DEB

ActivoLEO
NORAD 33758·DEBRIS·🇷🇺 Russia

Lanzado Jun 16, 1993 desde Plesetsk Cosmodrome

Loading…

Próximos Pases (próximas 24 horas)

TLE

ActualizadoSource: Space-Track

Época: Sep 14, 2026, 10:49 UTC

1 33758U 93036F   26257.45125076  .00001914  00000-0  46785-3 0  9997
2 33758  74.0263  54.9107 0016286  57.2109 323.7802 14.53180025923089

Sigue COSMOS 2251 DEB en tiempo real con AllMySat

Download on the App Store